sat.trackr.live / text

‹ back to catalog

STARLINK-37665

NORAD 69238 · 2026-117A

PAYLOAD ACTIVE UNKNOWN

§ Identity

Operator
Country
US
Launch date
2026-05-29
Launch site
AFETR
Launch vehicle
Mass (kg)
RCS (m²)

Purposes: comms

External: N2YO · Heavens-Above · Gunter

§ Orbital elements

Epoch: 2026-09-19T10:43:16.188096Z

Period
93.85 min
Inclination
53.1573°
Eccentricity
0.0000916
Mean motion
15.34393285 rev/d
Perigee alt
462.1 km
Apogee alt
463.3 km
Semi-major
6,840.9 km
B*
2.3769e-4
RAAN
158.7956°
Arg perigee
67.1458°
Mean anomaly
292.9641°
Rev number
1,750

§ Raw data

STARLINK-376651 69238U 26117A   26262.44671514  .00007661  00000+0  23769-3 0  99942 69238  53.1573 158.7956 0000916  67.1458 292.9641 15.34393285 17501

JSON: /api/v1/satellites/69238 · /tle

For live sub-satellite position, see the globe view (requires WebGL).

§ Visibility from observer

Set your observer location to see the next 7 days of passes ≥ 10°. The values pass through the URL so the page stays shareable.

No JS? Fill the form by hand. The geolocation button needs JavaScript.